Weather History for Plymouth, NH

Change the Weather History Date:

Saturday, August 24, 2013

  Actual Average (KLCI) Record (KLCI)
Temperature  
Mean Temperature 58 °F -  
Max Temperature 76 °F 76 °F 86 °F (1998)
Min Temperature 40 °F 54 °F 44 °F (1987)
Degree Days  
Heating Degree Days 7    
Growing Degree Days 8 (Base 50)    
Moisture  
Dew Point 45 °F    
Average Humidity 69    
Maximum Humidity 99    
Minimum Humidity 27    
Precipitation  
Precipitation 0.00 in - - ()
Sea Level Pressure  
Sea Level Pressure 30.29 in    
Wind  
Wind Speed 2 mph (West)    
Max Wind Speed 9 mph    
Max Gust Speed 17 mph    
Visibility 8 miles    
Events Fog    
Averages and records for this station are not official NWS values.
T = Trace of Precipitation, MM = Missing Value Source: NWS Daily Summary

Daily Weather History Graph

Daily Weather History Graph

Search for Another Location

Airport:

Trip Planner

Search our weather history database for the weather conditions in past years. The results will help you decide how hot, cold, wet, or windy it might be!

Date:

Astronomy

Aug. 24, 2013 Rise Set
Actual Time 6:01 AM EDT 7:36 PM EDT
Civil Twilight 5:31 AM EDT 8:06 PM EDT
Nautical Twilight 4:54 AM EDT 8:42 PM EDT
Astronomical Twilight 4:15 AM EDT 9:21 PM EDT
Moon 9:17 PM EDT (8/24) 10:08 AM EDT (8/24)
Length of Visible Light 14h 34m
Length of Day
13h 34m
Waning Gibbous, 84% of the Moon is Illuminated
Aug 24
Waning Gibbous
Aug 28
Last Quarter
Sep 5
New
Sep 12
First Quarter
Sep 19
Full

Hourly Weather History & Observations

Time (EDT) Temp. Dew Point Humidity Pressure Visibility Wind Dir Wind Speed Gust Speed Precip Events Conditions
12:15 AM 53.2 °F 47.3 °F 80% 30.18 in 10.0 mi Calm Calm - N/A   Clear
12:35 AM 49.8 °F 46.4 °F 88% 30.18 in 10.0 mi Calm Calm - N/A   Clear
12:55 AM 49.3 °F 46.6 °F 90% 30.18 in 10.0 mi Calm Calm - N/A   Clear
1:15 AM 48.6 °F 46.8 °F 93% 30.19 in 10.0 mi Calm Calm - N/A   Clear
1:35 AM 47.5 °F 46.0 °F 95% 30.20 in 10.0 mi South 3.5 mph - N/A   Clear
1:55 AM 46.9 °F 45.5 °F 95% 30.20 in 10.0 mi Calm Calm - N/A   Clear
2:15 AM 45.9 °F 44.8 °F 96% 30.21 in 10.0 mi Calm Calm - N/A   Clear
2:35 AM 45.7 °F 44.8 °F 97% 30.21 in 7.0 mi Calm Calm - N/A   Clear
2:55 AM 44.8 °F 43.9 °F 97% 30.22 in 1.8 mi Calm Calm - N/A   Mist
3:15 AM 44.1 °F 43.3 °F 97% 30.23 in 1.2 mi Calm Calm - N/A   Mist
3:35 AM 44.8 °F 44.1 °F 97% 30.24 in 0.8 mi Calm Calm - N/A   Mist
3:55 AM 43.5 °F 42.8 °F 97% 30.24 in 4.0 mi Calm Calm - N/A   Clear
4:15 AM 44.2 °F 43.5 °F 97% 30.25 in 4.0 mi Calm Calm - N/A   Clear
4:35 AM 43.2 °F 42.6 °F 98% 30.26 in 10.0 mi Calm Calm - N/A   Clear
4:55 AM 42.1 °F 41.7 °F 99% 30.27 in 0.8 mi Calm Calm - N/A   Mist
5:15 AM 42.3 °F 41.7 °F 98% 30.27 in 1.2 mi Calm Calm - N/A   Mist
5:35 AM 42.1 °F 41.5 °F 98% 30.28 in 7.0 mi Calm Calm - N/A   Clear
5:55 AM 40.5 °F 40.1 °F 99% 30.29 in 0.5 mi Calm Calm - N/A Fog Fog
6:15 AM 40.8 °F 40.3 °F 98% 30.30 in 7.0 mi Calm Calm - N/A   Scattered Clouds
6:35 AM 40.5 °F 40.1 °F 99% 30.31 in 0.2 mi Calm Calm - N/A Fog Fog
6:55 AM 41.9 °F 41.5 °F 99% 30.32 in 1.2 mi Calm Calm - N/A   Mostly Cloudy
7:15 AM 43.9 °F 43.5 °F 99% 30.32 in 1.2 mi Calm Calm - N/A   Scattered Clouds
7:35 AM 46.4 °F 45.7 °F 97% 30.32 in 10.0 mi Calm Calm - N/A   Clear
7:55 AM 47.5 °F 46.8 °F 97% 30.33 in 10.0 mi Calm Calm - N/A   Clear
8:15 AM 49.3 °F 48.4 °F 97% 30.34 in 10.0 mi Calm Calm - N/A   Clear
8:35 AM 53.1 °F 49.1 °F 86% 30.34 in 10.0 mi Calm Calm - N/A   Clear
8:55 AM 55.8 °F 47.8 °F 75% 30.34 in 10.0 mi NW 3.5 mph - N/A   Clear
9:15 AM 58.5 °F 47.5 °F 67% 30.33 in 10.0 mi NW 3.5 mph - N/A   Clear
9:35 AM 60.6 °F 46.0 °F 59% 30.33 in 10.0 mi WNW 4.6 mph - N/A   Clear
9:55 AM 62.2 °F 46.9 °F 57% 30.33 in 10.0 mi WNW 3.5 mph - N/A   Clear
10:15 AM 63.9 °F 47.8 °F 56% 30.32 in 10.0 mi Calm Calm - N/A   Clear
10:35 AM 66.2 °F 48.0 °F 52% 30.32 in 10.0 mi West 3.5 mph - N/A   Clear
10:55 AM 68.9 °F 38.1 °F 32% 30.32 in 10.0 mi West 5.8 mph - N/A   Clear
11:15 AM 70.2 °F 41.7 °F 36% 30.31 in 10.0 mi WNW 6.9 mph - N/A   Clear
11:35 AM 70.7 °F 44.4 °F 39% 30.31 in 10.0 mi West 6.9 mph - N/A   Clear
11:55 AM 72.1 °F 41.5 °F 33% 30.31 in 10.0 mi WSW 6.9 mph - N/A   Clear
12:15 PM 72.3 °F 39.4 °F 30% 30.30 in 10.0 mi West 5.8 mph - N/A   Clear
12:35 PM 73.6 °F 41.9 °F 32% 30.29 in 10.0 mi West 6.9 mph - N/A   Clear
12:55 PM 73.8 °F 43.5 °F 34% 30.29 in 10.0 mi West 8.1 mph - N/A   Clear
1:15 PM 73.2 °F 43.3 °F 34% 30.29 in 10.0 mi WNW 5.8 mph - N/A   Clear
1:35 PM 74.7 °F 42.3 °F 31% 30.29 in 10.0 mi West 9.2 mph - N/A   Clear
1:55 PM 75.6 °F 44.2 °F 33% 30.29 in 10.0 mi West 6.9 mph - N/A   Clear
2:15 PM 74.5 °F 44.2 °F 34% 30.29 in 7.0 mi West 5.8 mph - N/A   Clear
2:35 PM 74.7 °F 42.3 °F 31% 30.28 in 5.0 mi West 6.9 mph - N/A   Haze
2:55 PM 75.2 °F 41.9 °F 30% 30.28 in 10.0 mi West 8.1 mph - N/A   Clear
3:15 PM 75.2 °F 43.0 °F 32% 30.27 in 10.0 mi West 8.1 mph - N/A   Clear
3:35 PM 76.1 °F 42.1 °F 30% 30.27 in 10.0 mi West 9.2 mph - N/A   Clear
3:55 PM 76.3 °F 41.5 °F 29% 30.27 in 10.0 mi West 9.2 mph 17.3 mph N/A   Clear
4:15 PM 76.5 °F 42.1 °F 29% 30.27 in 10.0 mi West 9.2 mph - N/A   Clear
4:35 PM 76.6 °F 43.0 °F 30% 30.27 in 10.0 mi West 9.2 mph - N/A   Clear
4:55 PM 76.3 °F 41.4 °F 29% 30.27 in 10.0 mi West 8.1 mph - N/A   Clear
5:15 PM 76.5 °F 39.6 °F 27% 30.27 in 10.0 mi West 5.8 mph - N/A   Clear
5:35 PM 76.1 °F 39.9 °F 27% 30.27 in 10.0 mi West 4.6 mph - N/A   Clear
5:55 PM 75.7 °F 41.7 °F 30% 30.27 in 10.0 mi West 4.6 mph - N/A   Clear
6:15 PM 75.2 °F 43.7 °F 32% 30.27 in 10.0 mi West 4.6 mph - N/A   Clear
6:35 PM 74.1 °F 45.5 °F 36% 30.27 in 10.0 mi West 3.5 mph - N/A   Clear
6:55 PM 71.6 °F 50.7 °F 48% 30.27 in 10.0 mi Calm Calm - N/A   Clear
7:15 PM 66.6 °F 54.7 °F 66% 30.28 in 10.0 mi Calm Calm - N/A   Clear
7:35 PM 62.8 °F 54.1 °F 73% 30.29 in 10.0 mi Calm Calm - N/A   Clear
7:55 PM 60.1 °F 54.1 °F 81% 30.29 in 10.0 mi Calm Calm - N/A   Clear
8:15 PM 58.5 °F 53.4 °F 83% 30.30 in 10.0 mi Calm Calm - N/A   Clear
8:35 PM 56.8 °F 53.8 °F 89% 30.31 in 10.0 mi Calm Calm - N/A   Clear
8:55 PM 55.6 °F 53.1 °F 91% 30.32 in 10.0 mi Calm Calm - N/A   Clear
9:15 PM 54.9 °F 52.5 °F 92% 30.32 in 10.0 mi Calm Calm - N/A   Clear
9:35 PM 53.1 °F 51.1 °F 93% 30.33 in 10.0 mi Calm Calm - N/A   Clear
9:55 PM 52.7 °F 51.3 °F 95% 30.33 in 10.0 mi Calm Calm - N/A   Clear
10:15 PM 52.3 °F 50.9 °F 95% 30.34 in 10.0 mi Calm Calm - N/A   Clear
10:35 PM 52.0 °F 50.7 °F 95% 30.34 in 10.0 mi Calm Calm - N/A   Clear
10:55 PM 50.7 °F 49.5 °F 95% 30.34 in 2.5 mi Calm Calm - N/A   Clear
11:15 PM 50.0 °F 48.9 °F 96% 30.35 in 2.0 mi Calm Calm - N/A   Clear
11:35 PM 48.9 °F 47.8 °F 96% 30.35 in 7.0 mi Calm Calm - N/A   Clear
11:55 PM 48.4 °F 47.5 °F 97% 30.34 in 0.8 mi Calm Calm - N/A   Mist